Weather History for Liberia, Costa Rica

Change the Weather History Date:

Wednesday, January 23, 2013

  Actual Average Record
Temperature  
Mean Temperature 81 °F -  
Max Temperature 92 °F 90 °F 95 °F (1998)
Min Temperature 70 °F 74 °F 68 °F (1998)
Cooling Degree Days 16    
Growing Degree Days 31 (Base 50)    
Moisture  
Dew Point 62 °F    
Average Humidity 45    
Maximum Humidity 78    
Minimum Humidity 28    
Precipitation  
Precipitation 0.00 in - - ()
Sea Level Pressure  
Sea Level Pressure 29.89 in    
Wind  
Wind Speed 14 mph ()    
Max Wind Speed 26 mph    
Max Gust Speed 40 mph    
Visibility 11.0 miles    
Events      
Averages and records for this station are not official NWS values.
T = Trace of Precipitation, MM = Missing Value Source: Averaged Metar Reports

Daily Weather History Graph

Daily Weather History Graph

Search for Another Location

Airport:

Trip Planner

Search our weather history database for the weather conditions in past years. The results will help you decide how hot, cold, wet, or windy it might be!

Date:

Astronomy

Jan. 23, 2013 Rise Set
Actual Time 6:05 AM CST 5:42 PM CST
Civil Twilight 5:43 AM CST 6:05 PM CST
Nautical Twilight 5:17 AM CST 6:30 PM CST
Astronomical Twilight 4:52 AM CST 6:56 PM CST
Moon 3:00 PM CST (1/23) 3:08 AM CST (1/23)
Length of Visible Light 12h 21m
Length of Day
11h 37m
Waxing Gibbous, 89% of the Moon is Illuminated
Jan 23
Waxing Gibbous
Jan 26
Full
Feb 3
Last Quarter
Feb 10
New
Feb 17
First Quarter

Hourly Weather History & Observations

Time (CST) Temp. Heat Index Dew Point Humidity Pressure Visibility Wind Dir Wind Speed Gust Speed Precip Events Conditions
6:00 AM 71 °F - 64 °F 73% 29.91 in 12 mi NE 3.5 mph - -   Clear
6:00 AM 71.6 °F - 64.4 °F 78% 29.89 in - NE 3.5 mph - N/A   Clear
7:00 AM 78.8 °F - 62.6 °F 57% 29.90 in - East 12.7 mph - N/A   Clear
8:00 AM 82.4 °F 83.4 °F 62.6 °F 51% 29.92 in - NE 5.8 mph - N/A   Clear
9:00 AM 86 °F - 62 °F 34% 29.95 in 12 mi ENE 16.1 mph - -   Clear
9:00 AM 86.0 °F 86.1 °F 60.8 °F 43% 29.93 in - ENE 16.1 mph 27.6 mph N/A   Clear
10:00 AM 89.6 °F 89.5 °F 60.8 °F 38% 29.93 in - ENE 15.0 mph 28.8 mph N/A   Clear
11:00 AM 89.6 °F 88.9 °F 59.0 °F 36% 29.92 in - ENE 25.3 mph 39.1 mph N/A   Clear
12:00 PM 90 °F - 61 °F 28% 29.91 in 12 mi ENE 24.2 mph - -   Clear
12:00 PM 89.6 °F 89.5 °F 60.8 °F 38% 29.90 in - ENE 24.2 mph 35.7 mph N/A   Clear
1:00 PM 91.4 °F 90.7 °F 59.0 °F 34% 29.87 in - ENE 26.5 mph 40.3 mph N/A   Clear
2:00 PM 91.4 °F 90.7 °F 59.0 °F 34% 29.85 in - ENE 26.5 mph - N/A   Clear
3:00 PM 91 °F - 63 °F 29% 29.85 in 12 mi ENE 21.9 mph - -  
3:00 PM 91.4 °F 92.1 °F 62.6 °F 38% 29.84 in 6.2 mi ENE 21.9 mph - N/A   Partly Cloudy
4:00 PM 87.8 °F 89.4 °F 64.4 °F 46% 29.84 in - ENE 24.2 mph - N/A   Clear
5:00 PM 86.0 °F 86.6 °F 62.6 °F 45% 29.86 in - ENE 21.9 mph 33.4 mph N/A   Clear
6:00 PM 83 °F - 64 °F 43% 29.88 in 12 mi ENE 26.5 mph - -  
6:00 PM 82.4 °F 83.9 °F 64.4 °F 54% 29.86 in - ENE 26.5 mph - N/A   Clear
7:00 PM 82.4 °F 83.9 °F 64.4 °F 54% 29.88 in - ENE 24.2 mph - N/A   Clear
8:00 PM 80.6 °F 81.8 °F 62.6 °F 54% 29.89 in - ENE 20.7 mph - N/A   Clear